Change the Weather History Date:

Sunday, July 28, 2013

  Actual Average Record
Temperature  
Mean Temperature 62 °F -  
Max Temperature 66 °F 64 °F 77 °F (2001)
Min Temperature 59 °F 54 °F 53 °F (1997)
Degree Days  
Heating Degree Days 2    
Growing Degree Days 12 (Base 50)    
Moisture  
Dew Point 60 °F    
Average Humidity 91    
Maximum Humidity 94    
Minimum Humidity 83    
Precipitation  
Precipitation 0.12 in - - ()
Sea Level Pressure  
Sea Level Pressure 29.64 in    
Wind  
Wind Speed 11 mph ()    
Max Wind Speed 18 mph    
Max Gust Speed 36 mph    
Visibility 6.0 miles    
Events Rain    
Averages and records for this station are not official NWS values.
T = Trace of Precipitation, MM = Missing Value Source: Averaged Metar Reports

Daily Weather History Graph

Daily Weather History Graph

Search for Another Location

Airport or City:

Trip Planner

Search our weather history database for the weather conditions in past years. The results will help you decide how hot, cold, wet, or windy it might be!

Date:

Astronomy

Jul. 28, 2013 Rise Set
Actual Time 5:44 AM BST 9:09 PM BST
Civil Twilight 5:04 AM BST 9:48 PM BST
Nautical Twilight 4:12 AM BST 10:41 PM BST
Astronomical Twilight 2:59 AM BST 11:52 PM BST
Moon 11:34 PM BST (7/28) 12:58 PM BST (7/28)
Length of Visible Light 16h 43m
Length of Day
15h 24m
Waning Gibbous, 63% of the Moon is Illuminated
Jul 28
Waning Gibbous
Jul 29
Last Quarter
Aug 6
New
Aug 14
First Quarter
Aug 21
Full

Hourly Weather History & Observations

Time (BST) Temp. Dew Point Humidity Pressure Visibility Wind Dir Wind Speed Gust Speed Precip Events Conditions
12:50 AM 62 °F 60 °F 89% 29.68 in 12 mi SSW 8.1 mph - - Rain Light Rain
12:50 AM 62.6 °F 59.0 °F 88% 29.65 in 6.2 mi SSW 8.1 mph - N/A   Partly Cloudy
1:50 AM 60.8 °F 59.0 °F 94% 29.65 in 6.2 mi SSW 8.1 mph - N/A   Haze
2:50 AM 62.6 °F 60.8 °F 94% 29.65 in 6.2 mi SSW 10.4 mph - N/A   Haze
3:50 AM 62 °F 60 °F 90% 29.66 in 7 mi SSW 11.5 mph - -   Haze
3:50 AM 62.6 °F 59.0 °F 88% 29.65 in 6.2 mi SSW 11.5 mph - N/A   Haze
4:50 AM 60.8 °F 59.0 °F 94% 29.65 in 6.2 mi SSW 11.5 mph - N/A   Haze
5:50 AM 62.6 °F 59.0 °F 88% 29.65 in 6.2 mi SSW 10.4 mph - N/A   Haze
6:50 AM 62 °F 60 °F 93% 29.65 in 5 mi South 11.5 mph - - Rain Light Rain
6:50 AM 62.6 °F 60.8 °F 94% 29.65 in 5.0 mi South 11.5 mph 23.0 mph N/A Rain Light Rain
7:50 AM 62.6 °F 59.0 °F 88% 29.65 in 6.2 mi SSW 13.8 mph - N/A   Partly Cloudy
8:50 AM 64.4 °F 60.8 °F 88% 29.65 in 6.2 mi South 13.8 mph 26.5 mph N/A   Partly Cloudy
9:50 AM 63 °F 60 °F 87% 29.65 in 6 mi South 16.1 mph - -   Haze
9:50 AM 62.6 °F 60.8 °F 94% 29.65 in 6.2 mi South 16.1 mph 28.8 mph N/A   Partly Cloudy
10:50 AM 64.4 °F 59.0 °F 83% 29.65 in 6.2 mi South 18.4 mph 35.7 mph N/A   Scattered Clouds
11:50 AM 64.4 °F 60.8 °F 88% 29.62 in 6.2 mi South 16.1 mph 29.9 mph N/A   Scattered Clouds
12:50 PM 63 °F 60 °F 87% 29.63 in 6 mi South 17.3 mph - - Rain Heavy Rain Showers
12:50 PM 62.6 °F 60.8 °F 94% 29.62 in 6.2 mi South 17.3 mph 31.1 mph N/A Rain Rain Showers
1:50 PM 62.6 °F 60.8 °F 94% 29.62 in 5.6 mi South 13.8 mph 26.5 mph N/A   Mostly Cloudy
2:50 PM 66.2 °F 62.6 °F 88% 29.59 in 6.2 mi South 18.4 mph 34.5 mph N/A   Scattered Clouds
3:08 PM 66.2 °F 62.6 °F 88% 29.59 in 6.2 mi South 18.4 mph 31.1 mph N/A   Mostly Cloudy
3:50 PM 65 °F 62 °F 86% 29.61 in 5 mi South 16.1 mph - - Rain Light Rain Showers
3:50 PM 64.4 °F 62.6 °F 94% 29.59 in 5.0 mi South 16.1 mph 33.4 mph N/A   Partly Cloudy
4:50 PM 59.0 °F 57.2 °F 94% 29.62 in 1.9 mi SSW 16.1 mph 33.4 mph N/A Rain Rain Showers
5:50 PM 62.6 °F 60.8 °F 94% 29.62 in 6.2 mi SSW 12.7 mph - N/A   Mostly Cloudy
6:50 PM 63 °F 60 °F 89% 29.63 in 7 mi SW 15.0 mph - - Rain Light Rain Showers
6:50 PM 62.6 °F 60.8 °F 94% 29.62 in 6.2 mi SW 15.0 mph - N/A Rain Light Rain Showers
7:50 PM 62.6 °F 60.8 °F 94% 29.65 in 5.0 mi SW 13.8 mph - N/A   Scattered Clouds
8:50 PM 62.6 °F 59.0 °F 88% 29.65 in 6.2 mi WSW 13.8 mph - N/A   Partly Cloudy
9:50 PM 62.6 °F 60.8 °F 94% 29.68 in 5.0 mi WSW 12.7 mph - N/A   Partly Cloudy
10:50 PM 62.6 °F 60.8 °F 94% 29.71 in 6.2 mi WSW 13.8 mph - N/A   Scattered Clouds
11:50 PM 62.6 °F 60.8 °F 94% 29.74 in 6.2 mi WSW 11.5 mph - N/A   Partly Cloudy